Location: Unspecified
(0.0000°N, 0.0000°E)
Time: 09:50:21
(UTC+02:00)

CZ-4B DEB - Visible Passes

Search period start: 04 September 2015 00:00
Search period end: 14 September 2015 00:00
Orbit: 472 x 484 km, 97.5° (Epoch: 02 September)

Date Brightness Start Highest point End Pass type
(mag) Time Alt. Az. Time Alt. Az. Time Alt. Az.
04 Sep 5.1 21:27:08 10° SSW 21:30:16 28° W 21:33:21 10° NW visible
05 Sep 3.0 21:00:16 10° S 21:03:51 86° WSW 21:07:24 10° NNW visible
06 Sep 3.8 20:34:15 10° SE 20:37:24 30° E 20:40:35 10° NNE visible
07 Sep 5.9 21:41:35 10° SW 21:44:04 17° W 21:46:24 10° WNW visible
08 Sep 4.0 21:14:06 10° S 21:17:33 48° WSW 21:20:58 10° NNW visible
09 Sep 3.1 20:47:34 10° SSE 20:51:03 53° E 20:54:31 10° N visible
10 Sep 4.5 20:22:00 10° SE 20:24:30 19° E 20:27:05 10° NNE visible
10 Sep 6.5 21:56:52 10° WSW 21:57:41 10° W 21:58:14 10° W visible
11 Sep 5.1 21:27:57 10° SSW 21:31:04 28° W 21:34:07 10° NW visible
12 Sep 3.0 21:00:56 10° S 21:04:30 86° WSW 21:08:02 10° NNW visible
13 Sep 3.8 20:34:46 10° SE 20:37:55 30° E 20:41:04 10° NNE visible
